Regional Weather Roundup
Issued by NWS Newport/Morehead, NC

Current Version | Previous Version | Graphics & Text | Print | Product List | Glossary Off
Versions: 1 2 3 4 5 6 7 8 9 10 11 12 13 14 15 16 17 18 19 20 21 22 23 24 25 26 27 28 29 30 31 32 33 34 35 36 37 38 39 40 41 42 43 44 45 46 47 48 49 50

000
ASUS42 KMHX 272210
RWRMHX
WEATHER ROUNDUP FOR EASTERN NORTH CAROLINA
NATIONAL WEATHER SERVICE NEWPORT/MOREHEAD CITY NC
600 PM EDT WED AUG 27 2014

NOTE: "FAIR" INDICATES FEW OR NO CLOUDS BELOW 12,000 FEET
WITH NO SIGNIFICANT WEATHER AND/OR OBSTRUCTIONS TO VISIBILITY

NCZ015>017-031-032-045>047-102-103-272300-
NORTH COAST

CITY           SKY/WX    TMP DP  RH WIND       PRES   REMARKS
EDENTON        MOSUNNY   83  67  59 N7        29.94S
ELIZABETH CITY SUNNY     80  64  58 NE14      29.94S
KITTY HAWK     MOCLDY    77  70  79 N8        29.94S
MANTEO         PTSUNNY   76  70  80 N13G18    29.95S

$$

NCZ045>047-081-094-103-104-272300-
CENTRAL COAST

CITY           SKY/WX    TMP DP  RH WIND       PRES   REMARKS
FRISCO         MOSUNNY   78  72  81 N12G23    29.92S
SWANQUARTER      N/A     82 N/A N/A NE8G14    29.88S

$$

NCZ095-097-098-100-101-272300-
SOUTHERN COAST

CITY           SKY/WX    TMP DP  RH WIND       PRES   REMARKS
BEAUFORT       SUNNY     85  70  60 N9        29.92S
CEDAR ISLAND     N/A     82 N/A N/A NE5G16    29.97S
JACKSONVILLE   MOSUNNY   85  67  54 N12       29.93R
NEWPORT        NOT AVBL
PINEY ISLAND   CLEAR     84  73  69 NE14      29.92S
WILMINGTON     SUNNY     85  67  54 N8        29.94R


$$

NCZ011>013-027>030-043-044-078>080-089-090>093-098-272300-
COASTAL PLAIN

CITY           SKY/WX    TMP DP  RH WIND       PRES   REMARKS
AHOSKIE        SUNNY     81  64  55 N3        29.96S
CLINTON        SUNNY     85  62  46 N6        29.97S
ELIZABETHTOWN  SUNNY     86  57  37 NW3       29.96S
GOLDSBORO      SUNNY     83  58  41 N8        29.95S
GREENVILLE     SUNNY     82  64  54 N7        29.98S
HAVELOCK       MOSUNNY   86  69  56 NE12      29.93S
KENANSVILLE    SUNNY     82  58  43 NW5       29.97S
KINSTON        SUNNY     84  64  51 N7        29.96S
NEW BERN       MOSUNNY   85  68  56 N8        29.94S
RICHLANDS      MOSUNNY   84  64  51 N8        29.94S
ROANOKE RAPIDS NOT AVBL
ROCKY MOUNT    SUNNY     84  61  45 N7        29.97S
WASHINGTON     SUNNY     82  67  60 N7        29.95S
WHITEVILLE     SUNNY     85  61  44 N3        29.95S

$$

AMZ130-135-150-152-154-156-158-170-250-252-270-ANZ085-086-088-633-658-670-272300-
MARINE OBSERVATIONS

STATION/POSITION TIME  TEMP    WIND        PRES    WAVE   SWELL
                       AIR SEA DIR/SP/G            HT/PER HT/PER
                 (UTC) (F)     (DEG/KT/KT) (MB)    (FT/S) (FT/S)
CHESAPEAKE LIGHT 2100   74      20/  8/  9 1014.8
BUOY 44014       2200   76 78  360/ 16/ 19 1012.7    9/13   7/13
DUCK             2200   74 77   10/ 12/ 13 1013.4
2E DUCK          2200                        N/A     6/13   3/13
OREGON INLET     2200   76 78  350/ 12/ 20 1013.4
BUOY 44095       2200      76                N/A     9/13   5/13
20E OREGON INLET NOT AVBL
HATTERAS CG      2200   78 80   10/ 20/ 22 1013.5
DIAMOND BUOY     2200   77     350/ 21/ 27 1011.7   11/12   8/12
CAPE LOOKOUT     2100   80      40/ 15/ 18 1012.9
BEAUFORT LAB     2200   83 79   30/ 10/ 15 1012.7
30 SE NEW RIVER  2200   81 81   30/ 10/ 12 1013.4    7/11   7/11
5 SE WRIGHTSVILL 2200   80 81  360/ 10/ 10   N/A
BUOY 41002       2058   81 81  340/ 17/ 25 1010.6   10/ 9   7/ 9
BUOY 41004       2200   81 82   10/ 10/ 12 1014.2    6/11   5/11

$$



USA.gov is the U.S. government's official web portal to all federal, state and local government web resources and services.